www.pogodaiklimat.ru

Погода и климат >> Архив погоды >> Индонезия >> Джаяпура


ПОГОДА в Джаяпуре

  • Прогноз погоды в Джаяпуре
  • Монитор погоды в Джаяпуре

АРХИВ ПОГОДЫ в Джаяпуре

Время (UTC), дата Ветер
(напр.,м/с)
 
Видим.   Явления Облачность Т
(С)
Тd
(С)
f
(%)
Тe
(С)
Тes
(С)
Комфортность P
(гПа)
Po
(гПа)
Тmin
(С)
Tmax
(С)
R
(мм)
R24
(мм)
S
(см)
21 16.09 ЮЗ 2 5000 м мгла 4/1 480 м
[Cu hum Ci fib]
+26.6 +23.9 85 +37 +37 очень
душно
1012.5 1012.2
00 17.09 В 2 7000 м 4/4 480 м
[Cu hum]
+29.7 +24.7 75 +42 +51 опасность
перегрева
1013.4 1013.1 +26.0
03 17.09 С 5 10 км 4/4 450 м
[Cu med, cong]
+31.1 +25.9 74 +46 +53 опасность
перегрева
1010.8 1010.5
06 17.09 С 6 10 км 3/1 420 м
[Cu hum Ci sp]
+30.8 +26.3 77 +47 +50 опасность
перегрева
1009.5 1009.2
09 17.09 СЗ 3 9000 м мгла 5/3 420 м
[Cu hum Ac trans Ci sp]
+29.4 +25.9 81 +44 +44 опасность
перегрева
1010.6 1010.2
12 17.09 С 4 8000 м осадки на расстоянии 8/4 400 м
[Cb cap Ac As]
+29.2 +26.3 84 +44 +44 опасность
перегрева
1012.8 1012.4 +33.0
21 17.09 ЮЗ 2 8000 м мгла 9/3 420 м
[Cu med, cong Ac As Ci sp]
+27.0 +25.4 91 +39 +40 очень
душно
1013.4 1013.0 0.1
00 18.09 В 1 9000 м {туман} 6/3 420 м
[Cu med, cong Ci fib]
+29.8 +24.7 74 +42 +52 опасность
перегрева
1013.8 1013.4 +26.0 0.1
03 18.09 СВ 5 10 км 4/3 420 м
[Cu med, cong Ci fib]
+30.2 +25.1 74 +44 +52 опасность
перегрева
1011.2 1010.8
06 18.09 С 6 10 км 4/4 420 м
[Cb cap Ci fib]
+30.4 +26.2 78 +46 +48 опасность
перегрева
1009.4 1009.1
09 18.09 С 4 9000 м осадки на расстоянии 9/4 420 м
[Cu hum Ac trans Ci sp]
+29.2 +26.0 83 +44 +44 опасность
перегрева
1010.5 1010.2
12 18.09 С 2 8000 м осадки на расстоянии 8/3 420 м
[Cu hum Ac As Ci fib]
+29.0 +26.1 84 +44 +44 опасность
перегрева
1012.4 1012.1 +31.4
21 18.09 штиль 0 7000 м 9/5 360 м
[Cb cap Ac As Ci sp]
+27.2 +25.0 88 +39 +39 очень
душно
1012.5 1012.1
00 19.09 штиль 0 5000 м мгла 8/6 360 м
[Cb cap As op Ci sp]
+28.7 +26.2 86 +43 +49 опасность
перегрева
1013.9 1013.5 +27.1
03 19.09 СВ 6 8000 м 8/5 400 м
[Cb calv Ac trans Ci sp]
+29.9 +25.8 79 +45 +48 опасность
перегрева
1011.2 1010.8
06 19.09 СЗ 2 10 км 5/3 420 м
[Cu med, cong Ac trans Ci sp]
+30.2 +25.1 74 +44 +49 опасность
перегрева
1009.2 1008.8
09 19.09 С 3 8000 м осадки на расстоянии 9/4 400 м
[Cb cap Ac As Ci sp]
+29.2 +24.9 78 +42 +42 опасность
перегрева
1010.2 1009.9
12 19.09 ЮЗ 2 7000 м в посл. час дождь 10/4 400 м
[Cb cap Ac As]
+27.4 +25.0 87 +39 +39 очень
душно
1012.0 1011.7 +31.6 1
21 19.09 штиль 0 7000 м слаб. дождь {гроза} 10/4
[Cb cap As op]
+25.0 +24.5 97 +35 +35 очень
душно
1013.0 1012.6 76
00 20.09 ЮВ 2 3000 м слаб. дождь 10/10 300 м
[Cb cap]
+24.9 +23.9 94 +34 +34 очень
душно
1014.2 1013.8 +24.6 7
03 20.09 В 4 10 км {дождь} 5/4 420 м
[Cu hum Ac trans Ci sp]
+28.6 +24.5 79 +41 +49 опасность
перегрева
1010.2 1009.8 0.5
06 20.09 С 4 10 км 5/3 420 м
[Cu med, cong Ac trans Ci sp]
+30.6 +24.7 71 +43 +47 опасность
перегрева
1007.8 1007.4 0.5
09 20.09 Ю 3 9000 м 4/1 420 м
[Cu hum Ac trans Ci sp]
+29.0 +24.1 75 +40 +40 очень
душно
1008.6 1008.3
12 20.09 штиль 0 7000 м осадки на расстоянии 9/4 400 м
[Cb cap Ac As]
+27.6 +25.4 88 +40 +40 очень
душно
1011.3 1010.9 +31.8
21 20.09 штиль 0 10 км 8/4 360 м
[Cb calv Ac As Ci sp]
+25.6 +24.6 94 +36 +36 очень
душно
1011.5 1011.1
00 21.09 СВ 2 8000 м 8/6 360 м
[Cb calv Ac trans Ci sp]
+28.4 +26.3 88 +43 +47 опасность
перегрева
1012.8 1012.4 +25.6 0.5
03 21.09 С 3 5000 м дождь 10/6 360 м
[Cb cap As op]
+27.5 +26.4 94 +42 +43 опасность
перегрева
1011.2 1010.8 2
06 21.09 штиль 0 7000 м слаб. дождь 10/4
[Cb cap Ac As]
+26.6 +24.1 86 +37 +39 очень
душно
1010.0 1009.7 2
09 21.09 Ю 2 7000 м в посл. час дождь 9/4
[Cb cap Ac As Ci sp]
+26.2 +24.0 88 +36 +36 очень
душно
1010.0 1009.6 0.1
12 21.09 штиль 0 7000 м осадки на расстоянии 9/4
[Cb cap Ac As Ci sp]
+25.4 +23.7 90 +35 +35 очень
душно
1013.3 1013.0 +29.2 0.1
21 21.09 ЮЗ 2 7000 м мгла 6/1 420 м
[Cu med, cong Ac trans Ci sp]
+24.4 +23.0 92 +32 +33 очень
душно
1013.4 1013.0
00 22.09 Ю 6 8000 м мгла 5/1 420 м
[Cu hum Ac trans Ci sp]
+28.8 +24.2 76 +40 +44 очень
душно
1014.2 1013.8 +24.4 4
03 22.09 СВ 2 9000 м осадки на расстоянии 8/4 400 м
[Cb cap Ac As Ci sp]
+30.4 +26.7 81 +47 +56 опасность
перегрева
1011.7 1011.3
06 22.09 С 4 8000 м {туман} 8/1 420 м
[Cu med, cong Ac trans Ci sp]
+31.2 +26.4 76 +48 +51 опасность
перегрева
1009.8 1009.5
09 22.09 З 2 8000 м 8/1 420 м
[Cu hum Ac trans Ci sp]
+29.6 +25.3 78 +43 +43 опасность
перегрева
1011.4 1011.0
12 22.09 штиль 0 9000 м 5/1 420 м
[Cu hum Ac trans Ci sp]
+27.4 +24.4 84 +39 +39 очень
душно
1013.6 1013.2 +32.0
21 22.09 ЮЗ 2 8000 м мгла 6/1 420 м
[Cu med, cong Ac trans Ci sp]
+25.4 +23.5 89 +34 +35 очень
душно
1013.7 1013.3
00 23.09 В 4 9000 м 5/3 420 м
[Cu med, cong Ci sp]
+28.6 +25.1 81 +41 +48 опасность
перегрева
1014.5 1014.1 +25.4
03 23.09 С 4 10 км 6/5 420 м
[Cu med, cong Ci sp]
+32.0 +26.2 71 +48 +56 опасность
перегрева
1011.7 1011.3
06 23.09 З 3 10 км 4/3 400 м
[Cu med, cong Ci sp]
+32.8 +25.6 66 +48 +53 опасность
перегрева
1009.1 1008.8
09 23.09 З 2 9000 м 4/1 420 м
[Cu hum Ci sp]
+29.6 +25.3 78 +43 +43 опасность
перегрева
1010.7 1010.4
12 23.09 штиль 0 8000 м осадки на расстоянии 8/4 400 м
[Cb cap Ac As Ci sp]
+28.2 +25.0 83 +41 +41 опасность
перегрева
1013.0 1012.7 +33.2

 

Местоположение метеостанции Джаяпура (Индонезия): широта -2.59 долгота 140.71 высота над уровнем моря 3 м.

В архиве по умолчанию представлена погода в Джаяпуре за последнюю неделю. Архивные данные за месяц целиком и за предыдущие месяцы, начиная с января 2011 года, Вы можете получить, выбрав интересующий диапазон дат из раскрывающегося списка и нажав кнопку "Ввод!".


*Определитесь, кто Вы:
робот инопланетянин человек

Внимание! Время в таблицах - всемирное. Для получения местного времени необходимо прибавить поправку, которая равна 9 ч.

Смотрите также архив погоды в соседних городах и на ближайших метеорологических станциях:

Погода в Сентани (Индонезия) (21 км)
Погода в Сарми (Индонезия) (238 км)
Погода в Вамене (Индонезия) (256 км)
Погода в Танах Мерах (Индонезия) (393 км)
Погода в Коконао (Индонезия) (450 км)
Погода в Энаротали (Индонезия) (504 км)
Погода в Серуи (Индонезия) (504 км)
Погода в Биаке (Индонезия) (535 км)
Погода в Набире (Индонезия) (585 км)
Погода в Мерауке (Индонезия) (655 км)

Пояснения к столбцам:

Ветер - указаны скорость ветра в м/с - средняя за 10 мин, порывы в срок и между сроками (в фигурных скобках) и направление, откуда дует ветер: С - северный, СВ - северо-восточный, В - восточный, ЮВ - юго-восточный, Ю - южный, ЮЗ - юго-западный, З - западный, СЗ - северо-западный.
Видимость - горизонтальная дальность видимости в метрах или километрах. При видимости от 1 до 10 км при отсутствии осадков обычно наблюдается дымка, при ухудшении видимости до 1 км и менее - туман. В сухую погоду видимость может ухудшаться дымом, пылью или мглою.
Явления - указаны атмосферные явления, наблюдавшиеся в срок или в последний час перед сроком; фигурными скобками обозначены явления, наблюдавшиеся между сроками (за 1-3 часа до срока); квадратными скобками обозначены град или гололедные отложения с указанием их диаметра в мм.
Облачность - указаны через наклонную черту общая и нижняя облачность в баллах и высота нижней границы облаков в метрах; квадратными скобками обозначены формы облаков: Ci - перистые, Cs - перисто-слоистые, Cc - перисто-кучевые, Ac - высококучевые, As - высокослоистые, Sc - слоисто-кучевые, Ns - слоисто-дождевые, Cu - кучевые, Cb - кучево-дождевые. Подробнее классификацию облаков см. в Атласе облаков (PDF).
T - Температура воздуха - температура, измеренная на высоте 2 м над землей.
Td - Температура точки росы - температура, при понижении до которой содержащийся в воздухе водяной пар достигнет насыщения.
f - Относительная влажность воздуха - влажноcть воздуха, измеренная на высоте 2 м над землей.
Te - Эффективная температура - температура, которую ощущает одетый по сезону человек в тени. Характеристика душности погоды. При расчете учитывается влияние влажности воздуха и скорости ветра на теплоощущения человека.
Tes - Эффективная температура на солнце - температура, которую ощущает человек, с поправкой на солнечный нагрев. Характеристика знойности погоды. Зависит от высоты солнца над горизонтом, облачности и скорости ветра. Ночью, в пасмурную погоду, а также при ветре 12 м/с и более поправка равна нулю.
P - Атмосферное давление - приведенное к уровню моря атмосферное давление.
Po - Атмосферное давление - измеренное на уровне метеостанции атмосферное давление.
Tmin - Минимальная температура - минимум температуры воздуха на высоте 2 м над землей.
Tmax - Максимальная температура - максимум температуры воздуха на высоте 2 м над землей.
R - Количество осадков - Количество выпавших осадков за период времени, мм. При наведении курсора мыши на число - период времени, за который выпало указанное количество осадков.
R24 - Количество осадков - Количество выпавших осадков за 24 часа, мм.
S - Снежный покров - Высота снежного покрова, см. При наведении курсора мыши на число - состояние снежного покрова и степень покрытия местности в баллах.